When you browse on this site, cookies collect data to enhance your experience and personalize the content and advertising you see.
Visit our Privacy Policy to learn more. By continuing to use the site, you agree to this use of cookies and data.
  • en France
  • Liste des pays
  • À 7 jours
  • Température de l'eau
  • Carte météo
  • Widgets météo
  • user-avatar
    Se connecter

    Météo par heure à Molepolole

    Ce jour, 23 Août, Vendredi

    Heure Température Précipitation Vent Pression Humidité
    00:00 +12°C° 0 mm 1 m/s 669 mmHg 43%
    01:00 +12°C° 0 mm 1 m/s 669 mmHg 46%
    02:00 +11°C° 0 mm 1 m/s 669 mmHg 50%
    03:00 +11°C° 0 mm 1 m/s 669 mmHg 49%
    04:00 +11°C° 0 mm 1 m/s 669 mmHg 48%
    05:00 +11°C° 0 mm 1 m/s 668 mmHg 48%
    06:00 +12°C° 0 mm 1 m/s 669 mmHg 42%
    07:00 +14°C° 0 mm 1 m/s 670 mmHg 37%
    08:00 +16°C° 0 mm 1 m/s 671 mmHg 31%
    09:00 +19°C° 0 mm 2 m/s 672 mmHg 26%
    10:00 +23°C° 0 mm 2 m/s 672 mmHg 21%
    11:00 +26°C° 0 mm 3 m/s 673 mmHg 16%
    12:00 +27°C° 0 mm 3 m/s 672 mmHg 13%
    13:00 +28°C° 0 mm 3 m/s 672 mmHg 11%
    14:00 +29°C° 0 mm 3 m/s 671 mmHg 9%
    15:00 +28°C° 0 mm 3 m/s 671 mmHg 9%
    16:00 +28°C° 0 mm 3 m/s 671 mmHg 9%
    17:00 +28°C° 0 mm 3 m/s 670 mmHg 8%
    18:00 +24°C° 0 mm 3 m/s 670 mmHg 13%
    19:00 +20°C° 0 mm 2 m/s 669 mmHg 18%
    20:00 +16°C° 0 mm 2 m/s 669 mmHg 23%
    21:00 +15°C° 0 mm 1 m/s 669 mmHg 28%
    22:00 +14°C° 0 mm 1 m/s 669 mmHg 34%
    23:00 +12°C° 0 mm 0 m/s 668 mmHg 40%

    Demain, 24 Août, Samedi

    Heure Température Précipitation Vent Pression Humidité
    00:00 +13°C° 0 mm 1 m/s 668 mmHg 37%
    01:00 +13°C° 0 mm 1 m/s 668 mmHg 35%
    02:00 +12°C° 0 mm 2 m/s 668 mmHg 32%
    03:00 +10°C° 0 mm 2 m/s 668 mmHg 32%
    04:00 +9°C° 0 mm 2 m/s 668 mmHg 32%
    05:00 +8°C° 0 mm 2 m/s 668 mmHg 32%
    06:00 +10°C° 0 mm 2 m/s 669 mmHg 31%
    07:00 +13°C° 0 mm 2 m/s 670 mmHg 29%
    08:00 +14°C° 0 mm 2 m/s 671 mmHg 28%
    09:00 +17°C° 0 mm 2 m/s 671 mmHg 24%
    10:00 +21°C° 0 mm 3 m/s 672 mmHg 21%
    11:00 +25°C° 0 mm 4 m/s 673 mmHg 18%
    12:00 +26°C° 0 mm 3 m/s 672 mmHg 15%
    13:00 +27°C° 0 mm 3 m/s 671 mmHg 13%
    14:00 +29°C° 0 mm 3 m/s 671 mmHg 10%
    15:00 +28°C° 0 mm 3 m/s 670 mmHg 10%
    16:00 +28°C° 0 mm 3 m/s 670 mmHg 10%
    17:00 +28°C° 0 mm 4 m/s 669 mmHg 10%
    18:00 +24°C° 0 mm 3 m/s 669 mmHg 15%
    19:00 +20°C° 0 mm 2 m/s 668 mmHg 19%
    20:00 +16°C° 0 mm 2 m/s 668 mmHg 24%
    21:00 +15°C° 0 mm 2 m/s 668 mmHg 26%
    22:00 +15°C° 0 mm 1 m/s 668 mmHg 28%
    23:00 +14°C° 0 mm 1 m/s 668 mmHg 31%

    Après-demain, 25 Août, Dimanche

    Heure Température Précipitation Vent Pression Humidité
    00:00 +14°C° 0 mm 1 m/s 668 mmHg 31%
    01:00 +13°C° 0 mm 2 m/s 668 mmHg 31%
    02:00 +13°C° 0 mm 2 m/s 668 mmHg 31%
    03:00 +12°C° 0 mm 2 m/s 667 mmHg 33%
    04:00 +10°C° 0 mm 2 m/s 667 mmHg 34%
    05:00 +10°C° 0 mm 1 m/s 666 mmHg 36%
    06:00 +11°C° 0 mm 1 m/s 667 mmHg 33%
    07:00 +13°C° 0 mm 1 m/s 668 mmHg 31%
    08:00 +15°C° 0 mm 1 m/s 669 mmHg 29%
    09:00 +18°C° 0 mm 2 m/s 670 mmHg 26%
    10:00 +21°C° 0 mm 2 m/s 670 mmHg 24%
    11:00 +24°C° 0 mm 3 m/s 671 mmHg 21%
    12:00 +26°C° 0 mm 3 m/s 670 mmHg 18%
    13:00 +27°C° 0 mm 3 m/s 670 mmHg 15%
    14:00 +29°C° 0 mm 3 m/s 669 mmHg 12%
    15:00 +29°C° 0 mm 3 m/s 669 mmHg 12%
    16:00 +29°C° 0 mm 3 m/s 668 mmHg 12%
    17:00 +28°C° 0 mm 3 m/s 668 mmHg 12%
    18:00 +25°C° 0 mm 3 m/s 668 mmHg 16%
    19:00 +21°C° 0 mm 2 m/s 667 mmHg 21%
    20:00 +18°C° 0 mm 2 m/s 667 mmHg 25%
    21:00 +17°C° 0 mm 2 m/s 666 mmHg 27%
    22:00 +16°C° 0 mm 2 m/s 666 mmHg 30%
    23:00 +15°C° 0 mm 2 m/s 666 mmHg 32%

    26 Août, Lundi

    Heure Température Précipitation Vent Pression Humidité
    00:00 +15°C° 0 mm 2 m/s 666 mmHg 35%
    01:00 +14°C° 0 mm 1 m/s 666 mmHg 37%
    02:00 +14°C° 0 mm 1 m/s 666 mmHg 39%
    03:00 +13°C° 0 mm 1 m/s 666 mmHg 43%
    04:00 +12°C° 0 mm 1 m/s 666 mmHg 47%
    05:00 +10°C° 0 mm 0 m/s 665 mmHg 51%
    06:00 +12°C° 0 mm 0 m/s 666 mmHg 42%
    07:00 +15°C° 0 mm 0 m/s 668 mmHg 33%
    08:00 +19°C° 0 mm 1 m/s 669 mmHg 24%
    09:00 +22°C° 0 mm 1 m/s 669 mmHg 21%
    10:00 +25°C° 0 mm 1 m/s 670 mmHg 17%
    11:00 +28°C° 0 mm 2 m/s 670 mmHg 14%
    12:00 +29°C° 0 mm 2 m/s 670 mmHg 12%
    13:00 +30°C° 0 mm 3 m/s 669 mmHg 10%
    14:00 +31°C° 0 mm 3 m/s 668 mmHg 9%
    15:00 +31°C° 0 mm 3 m/s 668 mmHg 9%
    16:00 +31°C° 0 mm 3 m/s 668 mmHg 9%
    17:00 +30°C° 0 mm 3 m/s 667 mmHg 9%
    18:00 +27°C° 0 mm 3 m/s 667 mmHg 12%
    19:00 +23°C° 0 mm 2 m/s 666 mmHg 15%
    20:00 +19°C° 0 mm 2 m/s 666 mmHg 18%
    21:00 +18°C° 0 mm 2 m/s 666 mmHg 21%
    22:00 +17°C° 0 mm 2 m/s 666 mmHg 24%
    23:00 +18°C° 0 mm 1 m/s 666 mmHg 26%

    27 Août, Mardi

    Heure Température Précipitation Vent Pression Humidité
    00:00 +16°C° 0 mm 2 m/s 666 mmHg 26%
    01:00 +16°C° 0 mm 2 m/s 666 mmHg 26%
    02:00 +15°C° 0 mm 2 m/s 666 mmHg 26%
    03:00 +14°C° 0 mm 2 m/s 665 mmHg 28%
    04:00 +13°C° 0 mm 2 m/s 665 mmHg 31%
    05:00 +13°C° 0 mm 2 m/s 665 mmHg 33%
    06:00 +14°C° 0 mm 2 m/s 666 mmHg 31%
    07:00 +16°C° 0 mm 2 m/s 667 mmHg 29%
    08:00 +18°C° 0 mm 2 m/s 668 mmHg 27%
    09:00 +21°C° 0 mm 3 m/s 668 mmHg 24%
    10:00 +25°C° 0 mm 3 m/s 669 mmHg 21%
    11:00 +28°C° 0 mm 4 m/s 669 mmHg 18%
    12:00 +30°C° 0 mm 3 m/s 669 mmHg 15%
    13:00 +31°C° 0 mm 2 m/s 668 mmHg 13%
    14:00 +32°C° 0 mm 2 m/s 667 mmHg 10%
    15:00 +32°C° 0 mm 2 m/s 667 mmHg 10%
    16:00 +31°C° 0 mm 2 m/s 666 mmHg 10%
    17:00 +31°C° 0 mm 2 m/s 666 mmHg 10%
    18:00 +27°C° 0 mm 2 m/s 665 mmHg 16%
    19:00 +23°C° 0 mm 2 m/s 665 mmHg 23%
    20:00 +19°C° 0 mm 1 m/s 664 mmHg 29%
    21:00 +18°C° 0 mm 1 m/s 664 mmHg 30%
    22:00 +18°C° 0 mm 1 m/s 664 mmHg 30%
    23:00 +16°C° 0 mm 1 m/s 664 mmHg 30%

    28 Août, Mercredi

    Heure Température Précipitation Vent Pression Humidité
    00:00 +16°C° 0 mm 1 m/s 663 mmHg 33%
    01:00 +15°C° 0 mm 1 m/s 663 mmHg 35%
    02:00 +15°C° 0 mm 1 m/s 663 mmHg 38%
    03:00 +14°C° 0 mm 1 m/s 663 mmHg 36%
    04:00 +14°C° 0 mm 1 m/s 663 mmHg 34%
    05:00 +14°C° 0 mm 1 m/s 663 mmHg 32%
    06:00 +16°C° 0 mm 1 m/s 664 mmHg 29%
    07:00 +18°C° 0 mm 1 m/s 665 mmHg 25%
    08:00 +19°C° 0 mm 2 m/s 666 mmHg 22%
    09:00 +23°C° 0 mm 2 m/s 666 mmHg 19%
    10:00 +26°C° 0 mm 3 m/s 667 mmHg 16%
    11:00 +29°C° 0 mm 3 m/s 667 mmHg 13%
    12:00 +31°C° 0 mm 3 m/s 666 mmHg 12%
    13:00 +33°C° 0 mm 3 m/s 666 mmHg 11%
    14:00 +34°C° 0 mm 2 m/s 665 mmHg 10%
    15:00 +34°C° 0 mm 2 m/s 665 mmHg 10%
    16:00 +32°C° 0 mm 2 m/s 665 mmHg 10%
    17:00 +32°C° 0 mm 2 m/s 664 mmHg 10%
    18:00 +29°C° 0 mm 2 m/s 664 mmHg 13%
    19:00 +25°C° 0 mm 2 m/s 663 mmHg 16%
    20:00 +21°C° 0 mm 2 m/s 663 mmHg 20%
    21:00 +20°C° 0 mm 2 m/s 663 mmHg 20%
    22:00 +20°C° 0 mm 2 m/s 663 mmHg 21%
    23:00 +19°C° 0 mm 3 m/s 663 mmHg 22%
    Voir plus